Location: Unspecified
(40.7945°N, 0.0000°E)
Time: 06:44:26
(UTC+00:00)

Tiros 1 despin weight - Pass Details

Date: 23 January 2021
Orbit: 593 x 642 km, 48.2° (Epoch: 04 March)

Event Time Altitude Azimuth Distance (km) Brightness Sun altitude
Rises 18:19:26 0° 295° (WNW) 2,859 ? -13.8°
Reaches altitude 10° 18:21:54 10° 304° (NW) 1,947 ? -14.3°
Maximum altitude 18:26:01 36° 12° (NNE) 959 ? -15.0°
Enters shadow 18:27:49 25° 57° (ENE) 1,209 ? -15.4°
